Temperature
24 24 23 23 23 22 22 22 21 21 21 20 20 20 20 20 20 20 20 19 19 19 19 19 19 19 18 18 18 18 18 18 18 18 18 18 18 18 18 18 18 18 18
23 23 23 23 23 22 22 22 21 21 21 21 20 20 20 20 20 20 19 19 19 19 19 19 19 19 18 18 18 18 18 18 18 18 18 17 18 18 18 18 18 18 17
23 23 23 23 23 22 22 22 21 21 21 20 20 20 20 20 20 20 19 19 19 19 19 19 19 19 18 18 18 18 18 18 18 18 17 17 17 17 17 17 17 17 17
24 23 23 23 22 22 22 22 21 21 21 20 20 20 20 20 20 20 19 19 19 19 19 19 19 19 18 18 18 18 18 18 18 18 17 17 17 17 17 17 17 17 17
24 23 23 23 22 22 22 22 21 21 21 20 20 20 20 20 19 19 19 19 19 19 19 19 19 18 18 18 18 18 18 18 18 17 17 17 17 17 17 16 17 17 17
24 24 23 23 23 22 22 22 21 21 21 20 20 20 20 20 19 19 19 19 19 19 19 18 18 18 18 18 18 18 18 18 18 17 17 17 17 17 17 17 16 16 16
24 23 23 23 23 22 22 22 21 21 21 20 20 20 20 19 19 19 19 19 19 19 18 18 18 18 18 18 18 18 18 18 18 18 17 17 17 17 17 17 16 16 16
23 23 23 23 23 22 22 22 21 21 21 20 20 20 20 19 19 19 19 19 19 19 18 18 18 18 18 18 18 18 17 17 17 17 17 17 17 17 17 17 16 16 16
23 23 23 22 22 22 22 21 21 21 21 20 20 20 20 19 19 19 19 19 19 18 18 18 18 18 18 18 17 17 17 17 17 17 17 17 17 17 16 16 16 16 16
22 22 22 22 22 22 22 21 21 21 21 20 20 20 19 19 19 19 19 19 19 18 18 18 18 18 17 17 17 17 17 17 17 17 17 17 17 16 16 16 16 16 16
22 22 22 22 22 22 21 21 21 21 20 20 20 20 19 19 19 19 19 19 18 18 18 18 18 17 17 17 17 17 17 17 17 16 16 16 16 16 16 16 16 16 16
23 22 22 22 22 22 21 21 21 21 20 20 20 19 19 19 19 19 19 18 18 18 18 18 17 17 17 17 17 16 17 17 16 16 16 16 16 16 16 16 16 16 15
23 22 22 22 22 22 21 21 21 21 20 20 20 19 19 19 19 19 18 18 18 18 18 17 17 17 17 17 16 16 16 16 16 16 16 16 16 16 16 15 15 15 15
22 22 22 22 22 22 22 21 21 21 20 20 20 19 19 19 19 18 18 18 18 18 17 17 17 17 17 16 16 16 16 16 16 16 16 16 15 15 15 15 15 15 15
22 22 22 22 22 22 21 21 21 20 20 20 20 19 19 19 19 18 18 18 18 17 17 17 17 16 16 16 16 16 16 16 16 16 15 15 15 15 15 15 15 15 15
22 22 22 22 22 21 21 21 21 20 20 20 19 19 19 18 18 18 18 17 17 17 17 17 16 16 16 16 16 16 16 15 15 15 15 15 15 15 15 15 14 14 14
22 22 21 21 21 21 21 21 20 20 19 19 19 18 18 18 18 18 17 17 17 17 17 16 16 16 16 16 15 15 15 15 15 15 15 15 15 15 15 14 14 14 14
22 22 21 21 21 21 21 20 20 20 19 19 18 18 18 18 18 17 17 17 17 17 16 16 16 16 16 15 15 15 15 15 15 15 15 15 15 15 14 14 14 14 14
21 21 21 21 21 20 20 20 19 19 19 19 18 18 18 18 17 17 17 17 17 16 16 16 16 16 16 15 15 15 15 15 15 15 14 14 14 14 14 14 14 14 14
21 21 21 21 20 20 20 20 19 18 18 18 18 18 17 17 17 17 16 16 16 16 16 16 15 15 15 15 15 15 14 14 14 14 14 14 14 14 14 14 14 13 14
21 21 20 20 20 20 20 19 19 18 18 18 17 17 17 17 17 16 16 16 16 15 15 15 15 15 15 15 15 15 14 14 14 14 14 14 14 14 14 13 13 13 13
20 20 20 20 19 19 19 19 18 18 17 17 17 17 16 16 16 16 16 15 15 15 15 15 15 15 14 14 14 14 14 14 14 14 13 13 13 13 13 13 13 13 13
20 20 19 19 19 19 18 18 18 17 17 17 16 16 16 16 15 15 15 15 15 15 14 14 14 14 14 14 14 14 13 13 13 13 13 13 13 13 13 13 13 13 13
19 19 19 18 18 18 17 17 17 17 16 16 16 16 15 15 15 15 15 15 14 14 14 14 14 14 14 14 13 13 13 13 13 13 13 13 13 13 13 13 12 12 12
18 18 18 18 17 17 17 17 16 16 16 16 15 15 15 15 15 14 14 14 14 14 14 14 14 14 14 13 13 13 13 13 13 12 12 12 12 12 12 12 12 12 12
18 18 17 17 17 17 16 16 16 15 15 15 15 15 15 14 14 14 14 14 14 14 13 13 13 13 13 13 13 13 12 12 12 12 12 12 12 12 12 12 12 12 12
Wind_Speed
11 12 11 11 11 10 9 8 8 7 6 4 4 4 3 2 2 2 3 3 4 4 3 2 2 2 2 1 2 2 2 1 1 2 1 2 1 0 1 1 2 3 4
9 11 11 11 11 11 10 9 8 7 6 5 4 3 3 2 2 1 1 3 3 3 4 3 2 2 2 2 2 2 2 1 1 2 2 2 3 2 1 0 2 2 3
14 13 11 11 11 12 11 10 8 7 6 6 4 3 3 2 1 1 1 1 3 4 3 3 2 2 2 2 2 3 3 2 0 1 3 2 2 1 2 1 1 2 2
13 12 12 11 11 11 11 10 9 7 6 6 6 6 4 3 3 2 2 1 2 3 3 3 3 3 3 2 2 2 2 3 1 0 0 2 3 2 0 2 1 0 2
14 14 13 12 10 10 10 9 9 7 6 6 6 6 4 3 2 2 2 1 1 1 3 3 3 2 2 2 2 2 3 3 2 1 0 0 1 1 2 1 1 1 1
12 12 11 11 9 8 9 9 9 7 6 6 6 6 6 5 4 3 3 2 1 1 2 3 2 2 2 2 2 3 3 2 2 2 1 1 1 1 2 2 2 1 1
11 11 12 11 11 10 9 9 10 8 7 6 5 5 6 5 5 5 4 3 2 1 2 2 2 2 2 2 2 2 2 2 2 2 1 1 2 2 2 3 2 1 1
9 11 11 11 11 11 10 9 10 8 8 7 6 5 5 4 4 4 4 4 3 3 3 2 2 2 2 2 2 2 2 1 2 2 2 2 2 2 2 3 3 1 0
10 10 10 9 9 10 10 11 10 8 8 7 6 5 5 5 4 4 4 3 3 3 3 3 3 2 2 2 2 1 1 1 1 2 2 2 2 1 2 2 3 4 2
10 9 9 9 8 9 9 9 9 8 7 7 7 6 5 5 5 4 4 4 3 3 3 2 3 2 2 2 2 1 1 1 1 1 1 1 1 1 1 1 2 3 4
11 11 10 10 10 8 8 8 8 7 7 7 6 6 6 5 4 4 4 4 3 3 3 3 3 3 2 2 2 1 1 1 0 0 1 0 1 1 1 1 1 2 3
9 10 11 11 10 9 8 8 8 8 8 7 6 6 5 5 5 5 4 4 4 3 3 3 3 3 3 2 2 2 1 2 1 1 1 0 0 0 1 1 2 2 2
8 9 9 10 10 9 8 8 8 8 7 7 7 6 5 5 5 5 5 4 4 3 3 3 3 3 3 3 3 3 2 2 2 2 2 2 1 0 1 1 1 2 2
8 8 8 8 9 9 9 8 8 7 7 6 6 6 5 6 5 4 4 4 4 4 4 3 3 3 3 3 3 3 3 3 3 3 3 3 3 3 3 2 2 2 1
8 9 9 8 8 7 7 7 6 6 6 6 5 5 5 5 4 4 3 3 3 4 4 4 3 3 3 4 4 4 4 3 3 3 3 3 4 5 4 3 3 3 2
9 8 8 8 8 7 7 6 5 6 6 6 5 4 4 4 4 4 4 3 3 2 2 3 3 4 4 5 6 5 3 3 4 4 3 4 3 4 5 4 5 5 5
9 10 8 8 8 6 6 6 6 5 6 5 5 4 4 4 4 4 3 3 3 3 3 3 3 3 5 5 5 6 4 4 4 4 4 4 4 4 3 3 3 4 6
8 7 7 6 6 6 6 6 5 6 6 5 4 4 4 4 3 3 3 3 3 3 3 3 3 3 4 5 5 5 4 3 4 5 5 5 4 4 4 3 3 3 4
7 6 6 6 6 6 6 7 5 4 4 4 4 4 5 4 3 3 3 3 2 2 3 3 3 3 4 5 5 4 3 3 4 4 4 5 5 5 5 4 3 4 4
6 6 5 5 6 6 6 7 5 5 5 6 6 5 5 5 4 4 3 2 2 3 2 2 3 4 4 4 5 5 3 3 3 3 3 4 5 5 5 5 4 5 5
7 7 6 5 5 5 6 6 5 5 5 5 4 4 4 4 4 3 3 2 2 2 2 2 2 2 3 3 4 4 3 4 3 3 3 3 5 6 6 6 5 7 5
6 6 6 5 5 6 7 5 4 4 4 4 4 3 4 4 3 3 2 2 2 1 1 1 2 2 1 2 2 2 3 3 3 3 3 3 5 5 5 4 5 6 4
6 6 6 6 5 5 6 6 4 4 4 4 3 3 2 2 3 3 3 2 2 2 2 1 2 2 1 1 1 2 2 2 2 3 4 4 5 4 3 4 4 3 2
6 5 6 6 5 4 4 4 4 4 4 3 2 2 2 2 2 2 2 2 2 2 2 2 3 2 2 1 1 1 1 2 2 3 3 3 3 2 2 2 2 2 2
4 5 6 5 5 4 3 3 3 4 3 2 1 1 2 2 1 1 1 2 3 4 4 4 4 3 3 5 5 3 2 2 2 1 1 1 1 1 1 1 2 2 2
4 4 5 5 4 4 3 2 2 3 3 2 1 1 1 1 1 1 1 2 1 2 3 5 4 4 5 5 5 5 6 5 3 2 1 2 2 3 3 3 3 2 3
Wind_Direction
163 154 150 150 150 150 150 152 152 160 151 145 149 148 154 155 157 155 146 146 146 143 137 137 136 133 136 154 157 146 131 123 109 89 24 351 344 273 211 193 167 164 167
157 159 156 155 158 159 158 155 159 164 165 166 162 157 152 153 164 151 128 147 146 146 142 136 140 143 141 121 124 132 128 146 107 128 113 13 354 341 349 103 154 161 153
166 166 164 162 162 165 165 164 163 161 165 158 139 131 103 81 82 102 154 176 153 147 143 146 146 148 149 151 151 148 147 162 195 123 139 144 221 301 342 17 167 163 155
164 165 165 165 171 173 167 161 161 160 158 153 150 153 155 165 190 174 173 172 147 150 143 139 146 148 135 143 161 152 148 149 170 282 201 162 161 153 303 337 339 168 164
166 169 169 170 171 171 168 165 159 161 160 157 159 157 159 167 159 137 146 165 172 146 134 136 136 146 139 140 127 117 126 135 148 161 188 101 83 115 147 228 299 335 281
171 167 165 160 162 166 167 162 160 166 167 161 159 157 156 155 147 154 162 177 181 166 132 126 128 141 136 127 137 123 128 148 145 147 129 136 158 185 163 192 229 243 277
170 162 162 165 166 169 174 169 165 168 168 162 165 164 158 159 166 174 173 169 170 168 186 152 147 153 156 145 145 136 139 154 154 158 186 185 199 177 167 158 193 225 275
166 167 170 171 172 168 172 171 169 170 171 168 171 168 163 165 174 175 171 176 183 188 182 164 159 159 157 147 138 141 159 143 166 188 194 201 220 189 177 172 165 161 332
172 170 171 170 170 170 176 175 168 170 175 176 172 172 175 175 174 173 172 177 176 173 159 158 152 147 144 136 137 137 183 168 166 198 215 215 234 206 199 181 168 165 182
168 165 165 165 169 171 169 166 165 172 174 176 180 187 190 185 177 172 175 170 168 170 160 159 157 154 148 139 137 151 200 153 203 206 208 231 231 192 177 172 176 165 168
170 164 164 166 169 167 164 166 168 170 177 182 183 187 190 183 171 173 178 176 178 176 170 170 163 167 171 164 153 168 156 139 114 87 123 247 236 187 204 167 155 158 153
167 165 166 170 173 170 169 171 172 176 182 184 179 181 180 175 172 177 184 181 182 187 178 167 165 179 182 173 171 190 174 166 174 192 131 204 136 244 207 173 177 183 172
151 158 165 173 174 173 174 177 178 180 179 174 171 174 173 172 179 185 186 185 184 187 184 166 169 184 190 188 189 189 186 190 204 207 197 215 174 206 245 213 208 209 186
150 152 161 171 173 173 176 177 179 178 172 170 172 177 182 182 184 182 178 181 182 183 186 186 190 192 193 192 194 192 193 204 217 218 211 212 203 205 205 214 216 202 175
149 154 158 167 170 170 171 170 172 171 169 166 170 183 182 176 172 169 177 178 181 189 193 192 201 204 205 207 197 197 203 209 224 238 233 225 216 211 208 206 205 194 183
152 153 157 160 164 166 165 161 162 164 160 159 166 169 170 172 172 176 179 175 183 189 183 193 202 218 228 213 206 200 206 212 218 234 247 244 227 224 219 214 205 196 194
151 155 161 165 162 162 156 155 159 150 150 155 160 163 160 169 181 183 175 187 195 187 192 203 202 221 229 218 213 207 204 214 224 227 232 239 228 222 226 229 233 235 225
157 158 156 150 152 148 143 143 140 142 146 149 159 168 164 168 172 165 176 201 195 194 204 214 217 222 231 217 213 208 206 224 234 231 225 222 230 230 209 216 238 253 252
157 155 151 144 140 146 154 142 140 145 152 162 177 180 174 170 166 175 193 201 193 204 217 218 217 217 235 217 206 197 202 233 249 249 232 213 219 226 203 201 228 254 272
143 142 140 134 141 153 150 140 153 169 185 192 190 183 174 171 177 193 205 202 190 209 221 230 227 221 229 228 213 198 198 228 246 261 253 222 215 222 206 201 209 233 253
143 141 141 143 153 153 140 141 157 183 194 183 175 172 174 187 189 194 198 191 203 217 234 241 256 242 237 235 222 201 196 213 230 244 250 244 227 228 227 216 217 229 231
129 136 139 141 142 141 138 145 167 185 173 161 160 172 184 193 183 176 193 199 199 219 248 259 286 294 279 248 241 209 203 202 202 231 241 240 236 241 242 236 233 232 225
136 138 134 131 133 141 145 152 170 159 152 150 158 176 181 186 176 173 189 204 197 199 238 238 246 267 267 243 195 193 211 220 224 243 247 248 241 237 239 245 243 235 211
137 132 128 133 143 148 145 153 156 147 140 152 173 176 174 199 208 200 193 194 204 213 226 231 236 242 234 232 233 227 241 250 258 280 283 274 262 261 260 266 258 236 219
131 135 135 144 152 142 135 140 136 129 132 146 159 182 195 200 208 235 237 218 222 216 214 229 222 214 233 239 216 198 216 222 228 249 323 329 319 301 296 289 277 256 237
120 122 126 128 133 131 130 131 132 134 139 146 160 186 194 187 180 182 339 352 291 281 250 237 227 234 235 236 226 224 227 229 205 161 222 245 248 249 254 258 267 255 241
Height
1503 1505 1507 1510 1512 1514 1515 1517 1519 1520 1522 1523 1524 1525 1526 1527 1528 1528 1529 1529 1529 1529 1529 1528 1528 1528 1528 1528 1528 1529 1529 1529 1530 1530 1531 1531 1531 1531 1531 1531 1531 1532 1533
1502 1504 1506 1508 1510 1512 1514 1516 1518 1520 1521 1522 1523 1524 1525 1526 1527 1528 1528 1528 1529 1529 1528 1528 1528 1527 1527 1527 1527 1528 1528 1529 1529 1529 1529 1530 1531 1530 1531 1531 1531 1531 1532
1499 1502 1504 1506 1508 1510 1513 1515 1517 1519 1520 1522 1523 1524 1525 1526 1527 1527 1527 1528 1528 1528 1528 1527 1527 1527 1527 1526 1527 1527 1527 1528 1528 1529 1529 1529 1529 1529 1530 1530 1530 1530 1531
1498 1500 1503 1505 1507 1509 1511 1514 1516 1518 1519 1521 1522 1523 1523 1524 1525 1526 1526 1527 1527 1527 1526 1526 1526 1526 1526 1526 1526 1526 1526 1527 1527 1528 1528 1529 1528 1528 1529 1530 1529 1529 1529
1495 1498 1500 1503 1506 1509 1511 1513 1515 1517 1518 1520 1521 1522 1522 1523 1524 1525 1525 1526 1526 1526 1526 1525 1525 1525 1525 1525 1525 1525 1525 1525 1525 1526 1527 1527 1527 1527 1527 1527 1528 1528 1528
1493 1496 1499 1502 1505 1508 1510 1512 1514 1515 1517 1519 1520 1521 1521 1522 1523 1523 1524 1524 1525 1525 1525 1525 1524 1524 1524 1524 1524 1524 1524 1525 1525 1525 1525 1525 1526 1526 1526 1526 1526 1527 1527
1492 1494 1497 1500 1502 1505 1508 1510 1512 1514 1516 1518 1519 1520 1521 1521 1522 1522 1523 1523 1523 1523 1524 1524 1524 1524 1524 1524 1524 1523 1523 1524 1523 1524 1524 1524 1525 1525 1525 1525 1525 1525 1526
1490 1493 1495 1497 1500 1502 1505 1508 1510 1512 1514 1516 1518 1519 1519 1520 1521 1521 1522 1522 1522 1522 1523 1523 1523 1523 1523 1523 1523 1523 1523 1523 1522 1522 1522 1523 1523 1523 1523 1524 1524 1523 1524
1489 1492 1494 1497 1498 1501 1504 1506 1508 1510 1512 1514 1516 1517 1518 1519 1519 1520 1520 1520 1521 1521 1521 1522 1521 1521 1521 1522 1522 1522 1521 1521 1521 1521 1521 1521 1521 1521 1521 1522 1522 1522 1521
1488 1491 1494 1496 1498 1500 1502 1504 1507 1508 1510 1512 1513 1515 1516 1517 1517 1518 1518 1518 1519 1519 1519 1520 1520 1520 1520 1520 1520 1520 1520 1520 1519 1519 1519 1519 1519 1519 1519 1519 1519 1519 1519
1486 1488 1492 1494 1496 1499 1501 1503 1505 1507 1509 1510 1511 1512 1513 1515 1516 1516 1516 1517 1517 1517 1518 1518 1518 1518 1519 1519 1519 1518 1518 1518 1518 1518 1518 1517 1517 1517 1517 1517 1517 1517 1518
1485 1487 1490 1494 1496 1498 1500 1502 1503 1505 1507 1508 1509 1510 1512 1513 1514 1514 1514 1515 1515 1515 1516 1516 1516 1516 1517 1517 1517 1516 1516 1516 1516 1516 1516 1515 1515 1515 1515 1515 1515 1515 1516
1484 1487 1489 1491 1494 1496 1497 1500 1501 1503 1505 1506 1508 1509 1510 1511 1511 1512 1512 1513 1513 1513 1513 1514 1514 1514 1514 1514 1514 1514 1514 1514 1514 1514 1514 1513 1513 1513 1513 1513 1513 1514 1514
1483 1485 1487 1489 1491 1494 1496 1497 1499 1501 1503 1504 1505 1506 1508 1508 1509 1510 1510 1510 1510 1511 1511 1511 1512 1512 1512 1512 1512 1512 1512 1512 1512 1512 1512 1511 1511 1511 1511 1511 1511 1512 1512
1482 1484 1485 1488 1490 1492 1494 1495 1498 1499 1501 1502 1503 1504 1506 1506 1507 1507 1507 1508 1508 1508 1508 1509 1509 1509 1509 1509 1509 1509 1509 1509 1509 1509 1509 1509 1509 1509 1509 1509 1509 1509 1509
1480 1482 1484 1486 1488 1490 1492 1494 1496 1498 1499 1500 1501 1502 1503 1504 1504 1505 1505 1505 1506 1506 1506 1506 1506 1506 1507 1507 1507 1506 1506 1506 1506 1505 1506 1506 1506 1506 1506 1506 1506 1506 1507
1478 1481 1483 1485 1487 1488 1490 1492 1495 1496 1498 1498 1499 1500 1501 1501 1501 1502 1503 1503 1503 1503 1503 1503 1503 1503 1504 1504 1504 1504 1503 1503 1503 1502 1502 1502 1502 1503 1503 1503 1503 1503 1503
1477 1479 1481 1484 1486 1487 1489 1491 1493 1494 1495 1496 1496 1498 1498 1498 1499 1499 1500 1500 1500 1500 1500 1500 1500 1500 1500 1500 1500 1500 1500 1500 1500 1499 1499 1499 1499 1500 1500 1500 1500 1500 1500
1476 1478 1480 1482 1484 1486 1488 1489 1491 1492 1493 1493 1493 1494 1495 1496 1496 1496 1497 1497 1497 1497 1497 1497 1497 1496 1496 1497 1497 1497 1496 1496 1496 1496 1496 1496 1496 1496 1496 1497 1496 1496 1496
1475 1477 1479 1481 1482 1484 1486 1487 1488 1489 1490 1491 1491 1492 1493 1493 1493 1494 1494 1495 1494 1494 1494 1494 1493 1493 1493 1493 1493 1492 1492 1492 1492 1492 1492 1492 1492 1492 1493 1493 1493 1492 1492
1473 1475 1477 1479 1480 1482 1484 1485 1485 1486 1488 1489 1489 1490 1491 1491 1491 1492 1492 1492 1492 1491 1491 1490 1490 1490 1489 1489 1489 1488 1488 1488 1487 1487 1488 1488 1488 1489 1489 1489 1489 1489 1489
1472 1473 1476 1477 1478 1480 1481 1482 1483 1484 1485 1486 1486 1487 1488 1489 1489 1489 1489 1489 1489 1488 1488 1487 1487 1486 1486 1486 1485 1485 1484 1484 1484 1484 1484 1484 1485 1485 1485 1485 1485 1485 1485
1471 1473 1474 1475 1476 1478 1479 1479 1480 1481 1483 1483 1484 1485 1485 1486 1486 1486 1486 1486 1485 1485 1484 1484 1483 1483 1483 1483 1483 1482 1482 1481 1481 1481 1481 1482 1481 1482 1481 1481 1481 1481 1481
1469 1471 1472 1473 1474 1476 1477 1477 1478 1479 1480 1481 1481 1482 1482 1483 1483 1483 1483 1483 1482 1482 1481 1481 1480 1480 1480 1480 1480 1479 1479 1479 1479 1478 1479 1479 1478 1478 1478 1478 1478 1478 1477
1468 1469 1470 1470 1472 1473 1475 1475 1475 1476 1477 1478 1478 1479 1479 1479 1479 1480 1480 1480 1480 1480 1479 1478 1478 1477 1476 1477 1477 1476 1476 1476 1476 1476 1476 1475 1475 1474 1474 1474 1475 1474 1474
1466 1468 1469 1470 1471 1472 1472 1473 1474 1474 1475 1475 1476 1476 1476 1476 1476 1477 1477 1477 1477 1477 1477 1476 1475 1474 1474 1474 1474 1473 1473 1473 1473 1473 1472 1472 1471 1471 1471 1471 1471 1471 1470